Breckenridge, TX

2:35 PM CDT on March 29, 2017 (GMT -0500)
Stephens County

Weather History for KBKD - January, 2014

Change the Weather History Date:

Thursday, January 30, 2014

  Actual Average (KMWL) Record (KMWL)
Temperature  
Mean Temperature 53 °F -  
Max Temperature 70 °F 56 °F 84 °F (2016)
Min Temperature 36 °F 33 °F 21 °F (2000)
Degree Days  
Heating Degree Days 12    
Growing Degree Days 3 (Base 50)    
Moisture  
Dew Point 25 °F    
Average Humidity 36    
Maximum Humidity 47    
Minimum Humidity 23    
Precipitation  
Precipitation 0.00 in - - ()
Sea Level Pressure  
Sea Level Pressure 29.84 in    
Wind  
Wind Speed 16 mph (SSW)    
Max Wind Speed 25 mph    
Max Gust Speed 38 mph    
Visibility 10 miles    
Events      
Averages and records for this station are not official NWS values.
T = Trace of Precipitation, MM = Missing Value Source: NWS Daily Summary

Daily Weather History Graph

Daily Weather History Graph

Search for Another Location

Airport or City:

Trip Planner

Search our weather history database for the weather conditions in past years. The results will help you decide how hot, cold, wet, or windy it might be!

Date:

Astronomy

Jan. 30, 2014 Rise Set
Actual Time 7:31 AM CST 6:06 PM CST
Civil Twilight 7:05 AM CST 6:32 PM CST
Nautical Twilight 6:36 AM CST 7:02 PM CST
Astronomical Twilight 6:07 AM CST 7:31 PM CST
Moon 7:00 AM CST (1/30) 6:16 PM CST (1/30)
Length of Visible Light 11h 26m
Length of Day
10h 34m
Waning Crescent, 0% of the Moon is Illuminated
Jan 30
Waning Crescent
Jan 30
New
Feb 6
First Quarter
Feb 14
Full
Feb 22
Last Quarter

Hourly Weather History & Observations

Time (CST) Temp. Windchill Dew Point Humidity Pressure Visibility Wind Dir Wind Speed Gust Speed Precip Events Conditions
12:10 AM 38.3 °F 30.5 °F 14.2 °F 37% 30.05 in 10.0 mi South 12.7 mph 21.9 mph N/A   Clear
12:30 AM 38.1 °F 28.8 °F 14.0 °F 37% 30.03 in 10.0 mi South 17.3 mph 23.0 mph N/A   Clear
12:50 AM 38.5 °F 28.9 °F 14.0 °F 37% 30.03 in 10.0 mi South 18.4 mph 25.3 mph N/A   Clear
1:10 AM 38.3 °F 28.7 °F 14.0 °F 37% 30.02 in 10.0 mi South 18.4 mph 25.3 mph N/A   Clear
1:30 AM 37.9 °F 28.9 °F 14.4 °F 38% 30.01 in 10.0 mi SSW 16.1 mph 26.5 mph N/A   Clear
1:50 AM 37.6 °F 27.7 °F 14.4 °F 39% 30.00 in 10.0 mi SSW 18.4 mph 24.2 mph N/A   Clear
2:10 AM 37.6 °F 27.7 °F 14.4 °F 39% 29.99 in 10.0 mi South 18.4 mph 28.8 mph N/A   Clear
2:30 AM 37.6 °F 28.8 °F 14.5 °F 39% 29.98 in 10.0 mi South 15.0 mph 26.5 mph N/A   Clear
2:50 AM 37.4 °F 27.8 °F 14.5 °F 39% 29.97 in 10.0 mi South 17.3 mph 24.2 mph N/A   Clear
3:10 AM 36.9 °F 27.1 °F 14.9 °F 41% 29.96 in 10.0 mi South 17.3 mph 23.0 mph N/A   Clear
3:30 AM 37.0 °F 28.5 °F 14.9 °F 40% 29.95 in 10.0 mi South 13.8 mph 20.7 mph N/A   Clear
3:50 AM 36.9 °F 27.1 °F 14.9 °F 41% 29.94 in 10.0 mi South 17.3 mph 24.2 mph N/A   Clear
4:10 AM 36.7 °F 28.0 °F 15.1 °F 41% 29.93 in 10.0 mi SSW 13.8 mph 21.9 mph N/A   Clear
4:30 AM 36.7 °F 27.6 °F 14.9 °F 41% 29.93 in 10.0 mi SSW 15.0 mph 19.6 mph N/A   Clear
4:50 AM 36.7 °F 27.6 °F 14.9 °F 41% 29.92 in 10.0 mi SSW 15.0 mph 20.7 mph N/A   Clear
5:10 AM 36.5 °F 27.0 °F 14.9 °F 41% 29.91 in 10.0 mi SSW 16.1 mph 20.7 mph N/A   Clear
5:30 AM 36.5 °F 27.4 °F 14.9 °F 41% 29.91 in 10.0 mi SSW 15.0 mph 21.9 mph N/A   Clear
5:50 AM 36.0 °F 26.3 °F 14.9 °F 42% 29.90 in 10.0 mi SSW 16.1 mph 23.0 mph N/A   Clear
6:10 AM 36.1 °F 26.2 °F 14.9 °F 42% 29.90 in 10.0 mi SSW 17.3 mph 21.9 mph N/A   Clear
6:30 AM 36.0 °F 26.3 °F 14.9 °F 42% 29.90 in 10.0 mi SSW 16.1 mph 23.0 mph N/A   Clear
6:50 AM 36.1 °F 26.9 °F 14.9 °F 42% 29.89 in 10.0 mi SSW 15.0 mph 23.0 mph N/A   Clear
7:10 AM 36.3 °F 27.1 °F 15.3 °F 42% 29.89 in 10.0 mi SSW 15.0 mph - N/A   Clear
7:30 AM 36.5 °F 27.4 °F 15.4 °F 42% 29.89 in 10.0 mi South 15.0 mph - N/A   Clear
7:50 AM 37.6 °F 28.4 °F 15.8 °F 41% 29.89 in 10.0 mi SSW 16.1 mph 20.7 mph N/A   Clear
8:10 AM 38.5 °F 29.2 °F 16.2 °F 40% 29.88 in 10.0 mi South 17.3 mph 21.9 mph N/A   Clear
8:30 AM 39.9 °F 31.1 °F 17.1 °F 40% 29.88 in 10.0 mi SSW 17.3 mph 24.2 mph N/A   Clear
8:50 AM 42.1 °F 33.3 °F 18.3 °F 39% 29.89 in 10.0 mi SSW 19.6 mph 28.8 mph N/A   Clear
9:10 AM 43.3 °F 36.1 °F 19.6 °F 39% 29.88 in 10.0 mi SSW 15.0 mph 27.6 mph N/A   Clear
9:30 AM 45.1 °F 38.1 °F 21.2 °F 39% 29.89 in 10.0 mi SSW 16.1 mph 28.8 mph N/A   Clear
9:50 AM 46.6 °F - 22.1 °F 38% 29.88 in 10.0 mi SSW 17.3 mph 29.9 mph N/A   Clear
10:10 AM 49.1 °F - 23.7 °F 37% 29.87 in 10.0 mi SSW 21.9 mph 35.7 mph N/A   Clear
10:30 AM 51.8 °F - 24.6 °F 35% 29.86 in 10.0 mi SSW 23.0 mph 38.0 mph N/A   Clear
10:50 AM 53.6 °F - 25.3 °F 34% 29.87 in 10.0 mi SW 23.0 mph 32.2 mph N/A   Clear
11:10 AM 55.4 °F - 26.4 °F 33% 29.87 in 10.0 mi SW 17.3 mph 29.9 mph N/A   Clear
11:30 AM 56.5 °F - 27.0 °F 32% 29.86 in 10.0 mi SW 25.3 mph 34.5 mph N/A   Clear
11:50 AM 57.7 °F - 27.9 °F 32% 29.84 in 10.0 mi SSW 20.7 mph 33.4 mph N/A   Clear
12:10 PM 59.0 °F - 28.4 °F 31% 29.85 in 10.0 mi SSW 20.7 mph 32.2 mph N/A   Clear
12:30 PM 61.2 °F - 28.9 °F 30% 29.84 in 10.0 mi SSW 24.2 mph 33.4 mph N/A   Clear
12:50 PM 62.4 °F - 28.9 °F 28% 29.81 in 10.0 mi SW 20.7 mph 28.8 mph N/A   Clear
1:10 PM 64.4 °F - 29.1 °F 27% 29.79 in 10.0 mi SSW 25.3 mph 32.2 mph N/A   Clear
1:30 PM 65.5 °F - 29.3 °F 26% 29.77 in 10.0 mi SSW 19.6 mph 28.8 mph N/A   Clear
1:50 PM 65.8 °F - 29.3 °F 25% 29.78 in 10.0 mi SW 20.7 mph 31.1 mph N/A   Clear
2:10 PM 66.9 °F - 29.7 °F 25% 29.77 in 10.0 mi SSW 24.2 mph 31.1 mph N/A   Clear
2:30 PM 67.5 °F - 30.2 °F 25% 29.76 in 10.0 mi SSW 21.9 mph 27.6 mph N/A   Clear
2:50 PM 67.8 °F - 30.2 °F 25% 29.75 in 10.0 mi SW 20.7 mph 29.9 mph N/A   Clear
3:10 PM 70.0 °F - 30.4 °F 23% 29.75 in 10.0 mi SSW 20.7 mph 26.5 mph N/A   Clear
3:30 PM 68.5 °F - 30.9 °F 25% 29.75 in 10.0 mi SW 15.0 mph 24.2 mph N/A   Clear
3:50 PM 68.4 °F - 30.9 °F 25% 29.75 in 10.0 mi SSW 15.0 mph 23.0 mph N/A   Clear
4:10 PM 68.2 °F - 31.1 °F 25% 29.74 in 10.0 mi SSW 12.7 mph - N/A   Clear
4:30 PM 68.5 °F - 31.1 °F 25% 29.74 in 10.0 mi SSW 16.1 mph 20.7 mph N/A   Clear
4:50 PM 69.1 °F - 30.7 °F 24% 29.74 in 10.0 mi SSW 17.3 mph 23.0 mph N/A   Clear
5:10 PM 67.5 °F - 31.1 °F 26% 29.74 in 10.0 mi SSW 11.5 mph 17.3 mph N/A   Clear
5:30 PM 67.1 °F - 31.5 °F 27% 29.74 in 10.0 mi South 12.7 mph 21.9 mph N/A   Clear
5:50 PM 65.5 °F - 32.0 °F 29% 29.75 in 10.0 mi South 11.5 mph - N/A   Clear
6:10 PM 63.9 °F - 33.1 °F 32% 29.75 in 10.0 mi SSE 10.4 mph - N/A   Clear
6:30 PM 63.1 °F - 33.3 °F 33% 29.75 in 10.0 mi South 12.7 mph 16.1 mph N/A   Clear
6:50 PM 62.4 °F - 33.3 °F 34% 29.76 in 10.0 mi South 10.4 mph - N/A   Clear
7:10 PM 61.2 °F - 33.4 °F 35% 29.76 in 10.0 mi SSE 10.4 mph - N/A   Clear
7:30 PM 60.6 °F - 34.5 °F 38% 29.76 in 10.0 mi South 11.5 mph 17.3 mph N/A   Clear
7:50 PM 60.1 °F - 34.9 °F 39% 29.76 in 10.0 mi SSE 11.5 mph - N/A   Clear
8:10 PM 59.0 °F - 35.2 °F 41% 29.77 in 10.0 mi South 11.5 mph - N/A   Clear
8:30 PM 59.0 °F - 36.0 °F 42% 29.76 in 10.0 mi South 11.5 mph 20.7 mph N/A   Clear
8:50 PM 59.0 °F - 36.7 °F 43% 29.76 in 10.0 mi South 13.8 mph 23.0 mph N/A   Clear
9:10 PM 58.6 °F - 36.7 °F 44% 29.76 in 10.0 mi South 11.5 mph 18.4 mph N/A   Clear
9:30 PM 58.3 °F - 36.5 °F 44% 29.76 in 10.0 mi South 15.0 mph 19.6 mph N/A   Clear
9:50 PM 58.1 °F - 36.5 °F 44% 29.76 in 10.0 mi South 18.4 mph 25.3 mph N/A   Clear
10:10 PM 57.4 °F - 36.5 °F 46% 29.76 in 10.0 mi South 16.1 mph 23.0 mph N/A   Clear
10:30 PM 56.5 °F - 36.5 °F 47% 29.76 in 10.0 mi South 17.3 mph - N/A   Clear
10:50 PM 56.5 °F - 36.1 °F 47% 29.77 in 10.0 mi SSW 16.1 mph 23.0 mph N/A   Clear
11:10 PM 56.5 °F - 36.0 °F 46% 29.76 in 10.0 mi SSW 18.4 mph 25.3 mph N/A   Clear
11:30 PM 56.1 °F - 36.0 °F 47% 29.76 in 10.0 mi SSW 15.0 mph 21.9 mph N/A   Clear
11:50 PM 55.9 °F - 36.1 °F 47% 29.76 in 10.0 mi SSW 12.7 mph 23.0 mph N/A   Clear